Weather Service Report


826 
ASUS44 KEWX 290111
RWRTX 
SOUTH TEXAS REGIONAL WEATHER ROUNDUP
NATIONAL WEATHER SERVICE AUSTIN/SAN ANTONIO TX
800 PM CDT SAT MAR 28 2015

NOTE: "FAIR" INDICATED FEW OR NO CLOUDS BELOW 12,000 FEET WITH NO
SIGNIFICANT WEATHER AND/OR OBSTRUCTIONS TO VISIBILITY.

* - THESE STATIONS ARE NOT NWS OR FAA STATIONS...AND ARE NOT SUBJECT
    TO NWS AND FAA QUALITY CONTROL.
 
TXZ171-172-183>190-290200-
TEXAS HILL COUNTRY AND EDWARDS PLATEAU
  
CITY           SKY/WX    TMP DP  RH WIND       PRES   REMARKS
JUNCTION       CLEAR     78  34  20 S12       30.00R                  
*LLANO         CLEAR     75  39  27 S6        30.03R                  
BURNET         CLEAR     76  38  25 S9        30.03R                  
*HORSESHOE BAY CLEAR     76  39  26 S10G16    30.01S                  
*KERRVILLE     CLEAR     69  40  34 SE7       30.05S                  
*FREDERICKSBRG CLEAR     72  36  26 S6        30.04S                  
*ROCKSPRINGS   CLEAR     75  39  27 S13       30.06S                  
*BOERNE STAGE  CLEAR     72  36  26 S6        30.06S                  
*CASTROVILLE   CLEAR     73  43  33 SE6       30.04F                  
HONDO          CLEAR     71  44  37 S8        30.04S                  
*UVALDE        CLEAR     75  42  30 SE7       30.02                   
DEL RIO        CLEAR     82  35  18 SE10      29.96R                  
LAUGHLIN AFB   CLEAR     79  44  28 SE10      29.97S                  
CARRIZO SPRGS  CLEAR     77  39  25 SE9       29.99S                  
$$

TXZ173-191>194-202-209-217>225-228-290200-
CENTRAL AND SOUTH CENTRAL TEXAS
  
CITY           SKY/WX    TMP DP  RH WIND       PRES   REMARKS
GEORGETOWN     CLEAR     77  39  25 S10       30.01R                  
AUSTIN/BERGSTM CLEAR     70  46  42 S9        30.02S                  
AUSTIN/MABRY   CLEAR     76  42  29 S8        30.03S                  
*AUSTIN/EXEC     N/A     72  45  37 S8        30.03S                  
*LAGO VISTA    CLEAR     75  39  26 S7        30.03S                  
SAN MARCOS     CLEAR     72  45  37 S9        30.04S                  
NEW BRAUNFELS  CLEAR     70  46  42 S9        30.03S                  
RANDOLPH AFB   CLEAR     70  48  45 S8        30.04S                  
PT SAN ANTONIO CLEAR     67  49  51 SE9       30.02S                  
SAN ANTONIO    CLEAR     74  45  35 SE12      30.04S                  
STINSON FIELD  CLEAR     74  46  36 SE7       30.02S                  
*PLEASANTON    CLEAR     75  45  34 SE6       30.05R                  
*LA GRANGE     CLEAR     73  46  38 S9        30.04R                  
*GIDDINGS      CLEAR     72  44  36 S6        30.08R                  
*GONZALES      CLEAR     71  48  44 S7        30.05R                  
$$

TXZ163>164-176>182-195>201-210>213-226-227-235-290200-
SOUTHEAST TEXAS
  
CITY           SKY/WX    TMP DP  RH WIND       PRES   REMARKS
COLLEGE STN    CLEAR     73  43  33 S8        30.03S                  
*BRYAN         CLEAR     73  44  35 S7        30.04S                  
*CALDWELL      CLEAR     70  45  40 S9        30.06S                  
*CROCKETT      CLEAR     73  50  43 S6        30.06S                  
*BRENHAM       CLEAR     74  42  31 S10       30.05S                  
HUNTSVILLE     CLEAR     72  46  39 S5        30.04S                  
CONROE         CLEAR     74  40  29 S8        30.07R                  
HOUSTON BUSH   CLEAR     74  40  29 S7        30.08R                  
HOUSTON HOBBY  CLEAR     70  44  39 S9        30.09R                  
*HOUSTON SW AP CLEAR     74  55  51 S3        30.11R                  
PEARLAND       CLEAR     72  46  39 S7        30.12R                  
HOUSTON HOOKS  CLEAR     72  39  30 S15       30.08R                  
ELLINGTON FLD  CLEAR     73  43  33 S9        30.11R                  
SUGAR LAND     CLEAR     68  43  40 S8        30.09R                  
*HOUSTON EXEC  CLEAR     68  43  40 S13       30.09S                  
*CLEVELAND MUN CLEAR     67  54  63 CALM      30.08R                  
*WHARTON       CLEAR     67  54  62 S10       30.10R                  
*COLUMBUS      FAIR      68  47  47 S7        30.07R                  
$$

TXZ214>216-236>238-290200-
THE UPPER TEXAS COAST
  
CITY           SKY/WX    TMP DP  RH WIND       PRES   REMARKS
*ORANGE        CLEAR     66  55  66 MISG      30.13S                  
PORT ARTHUR    NOT AVBL                                               
GALVESTON      CLEAR     65  63  93 S8        30.13R                  
ANGLETON       CLEAR     65  58  78 S9        30.11R                  
*BAY CITY      CLEAR     67  60  79 S9        30.10S                  
PALACIOS       CLEAR     69  61  75 S13       30.10S                  
$$

TXZ229>234-239>247-290200-
TEXAS COASTAL BEND AND RIO GRANDE PLAINS
  
CITY           SKY/WX    TMP DP  RH WIND       PRES   REMARKS
VICTORIA       CLEAR     69  48  47 S12       30.09R                  
*BEEVILLE      CLEAR     69  58  66 SE9G16    30.07R                  
ROCKPORT       CLEAR     69  58  67 S14G21    30.09R                  
*PORT ARANSAS  CLEAR     66  63  88 S14       30.10R                  
*PORT LAVACA   CLEAR     67  56  68 S12       30.09F                  
*INGLESIDE     CLEAR     69  59  70 S17G24    30.09R                  
CORPUS CHRISTI CLEAR     69  55  60 SE21      30.08R                  
CORPUS NAS     CLEAR     67  61  81 S21G28    30.10R                  
*ROBSTOWN      CLEAR     71  56  59 MISG      30.08R                  
ALICE          CLEAR     73  47  39 S10       30.05R                  
KINGSVILLE NAS CLEAR     72  60  66 SE14      30.07R                  
COTULLA        CLEAR     78  43  28 SE9       30.02R                  
*FAITH RANCH   CLEAR     81  43  26 SE10G18   30.00S                  
LAREDO         CLEAR     78  42  27 SE8       30.04R                  
$$

TXZ248>255-290200-
DEEP SOUTH TEXAS
  
CITY           SKY/WX    TMP DP  RH WIND       PRES   REMARKS
BROWNSVILLE    CLEAR     69  60  73 S14       30.11R                  
PORT ISABEL    CLEAR     69  60  73 S15       30.10R                  
*SOUTH PADRE   CLEAR     66  63  88 SW9       30.12R                  
HARLINGEN      CLEAR     70  57  63 S16       30.10R                  
*HEBBRONVILLE  NOT AVBL                                               
MCALLEN        CLEAR     72  52  49 SE14      30.09R                  
*WESLACO       CLEAR     70  53  53 S13       30.09R                  
FALFURRIAS     CLEAR     73  45  35 SE9       30.06R                  
EDINBURG       CLEAR     72  44  36 S9        30.09R                  
*ZAPATA        CLEAR     78  42  27 SE9       30.02S                  
$$

TXZ213>215-236>238-242>244-246-247-251-254-255-290200-
CMAN STATIONS
  
STATION/POSITION TIME  TEMP    WIND        PRES    WAVE
                       AIR SEA DIR/SP/G            HT/PER
                 (UTC) (F)     (DEG/KT/KT) (MB)    (FT/S)
$$

GMZ080-GMZ150>470-290200-
OFFSHORE BUOY REPORTS
  
STATION/POSITION TIME  TEMP    WIND        PRES    WAVE
                       AIR SEA DIR/SP/G            HT/PER
                 (UTC) (F)     (DEG/KT/KT) (MB)    (FT/S)
$$

Return to Home page


Western Regional Climate Center, wrcc@dri.edu